Location: Pitton
(51.0667°N, 1.7000°W)
Time: 05:37:57
(UTC+00:00)

MetOp-A - Pass Details

Date: 17 September 2019
Orbit: 820 x 821 km, 98.6° (Epoch: 20 October)

Event Time Altitude Azimuth Distance (km) Brightness Sun altitude
Exits shadow 19:57:58 21° 144° (SE) 1,775 5.4 -16.1°
Maximum altitude 20:01:32 63° 70° (ENE) 921 4.2 -16.6°
Drops below altitude 10° 20:06:51 10° 350° (N) 2,431 7.1 -17.4°
Sets 20:09:13 0° 348° (NNW) 3,368 7.9 -17.7°
